Time,TemperatureF,DewpointF,PressureIn,WindDirection,WindDirectionDegrees,WindSpeedMPH,WindSpeedGustMPH,Humidity,HourlyPrecipIn,Conditions,Clouds,dailyrainin,SoftwareType,DateUTC
2013-10-01 00:01:00,49.8,38.5,29.85,South,180,9.4,9.4,65,0.00,,,0.10,LWC V1.12 B30,2013-10-01 04:01:00,
2013-10-01 00:02:00,49.8,38.5,29.85,SSE,157,7.6,9.4,65,0.00,,,0.10,LWC V1.12 B30,2013-10-01 04:02:00,
2013-10-01 00:03:00,49.8,38.5,29.85,South,180,10.1,10.1,65,0.00,,,0.10,LWC V1.12 B30,2013-10-01 04:03:00,
2013-10-01 00:06:00,49.8,38.5,29.85,South,180,4.0,9.6,65,0.00,,,0.10,LWC V1.12 B30,2013-10-01 04:06:00,
2013-10-01 00:11:00,49.8,38.5,29.85,SSE,157,6.0,12.1,65,0.00,,,0.10,LWC V1.12 B30,2013-10-01 04:11:00,
2013-10-01 00:17:00,49.8,38.5,29.85,SW,225,5.8,11.6,65,0.00,,,0.10,LWC V1.12 B30,2013-10-01 04:17:00,
2013-10-01 00:22:00,49.8,38.9,29.86,SSE,157,4.9,13.6,66,0.00,,,0.10,LWC V1.12 B30,2013-10-01 04:22:00,
2013-10-01 00:27:00,49.8,38.9,29.86,South,180,8.1,12.7,66,0.00,,,0.10,LWC V1.12 B30,2013-10-01 04:27:00,
2013-10-01 00:32:00,49.8,38.9,29.86,SW,225,7.4,16.1,66,0.00,,,0.10,LWC V1.12 B30,2013-10-01 04:32:00,
2013-10-01 00:37:00,49.8,38.5,29.86,SSE,157,8.3,14.8,65,0.00,,,0.10,LWC V1.12 B30,2013-10-01 04:37:00,
2013-10-01 00:42:00,49.8,38.9,29.87,SSE,157,7.8,10.5,66,0.00,,,0.10,LWC V1.12 B30,2013-10-01 04:42:00,
2013-10-01 00:47:00,49.8,38.9,29.87,SSW,202,7.6,15.7,66,0.00,,,0.10,LWC V1.12 B30,2013-10-01 04:47:00,
2013-10-01 00:52:00,49.8,38.9,29.87,SSW,202,6.3,12.7,66,0.00,,,0.10,LWC V1.12 B30,2013-10-01 04:52:00,
2013-10-01 00:57:00,49.8,38.9,29.86,SSE,157,9.8,10.3,66,0.00,,,0.10,LWC V1.12 B30,2013-10-01 04:57:00,
2013-10-01 01:02:00,49.8,38.9,29.87,SSW,202,7.2,16.5,66,0.00,,,0.10,LWC V1.12 B30,2013-10-01 05:02:00,
2013-10-01 01:07:00,49.8,38.9,29.87,SSW,202,15.4,15.4,66,0.00,,,0.10,LWC V1.12 B30,2013-10-01 05:07:00,
2013-10-01 01:12:00,49.6,38.7,29.87,South,180,4.7,6.9,66,0.00,,,0.10,LWC V1.12 B30,2013-10-01 05:12:00,
2013-10-01 01:17:00,49.6,38.7,29.87,SSE,157,5.6,16.1,66,0.00,,,0.10,LWC V1.12 B30,2013-10-01 05:17:00,
2013-10-01 01:22:00,49.6,39.1,29.88,South,180,13.9,13.9,67,0.00,,,0.10,LWC V1.12 B30,2013-10-01 05:22:00,
2013-10-01 01:27:00,49.6,39.1,29.88,SSW,202,4.0,14.1,67,0.00,,,0.10,LWC V1.12 B30,2013-10-01 05:27:00,
2013-10-01 01:32:00,49.3,38.8,29.88,South,180,23.5,23.5,67,0.00,,,0.10,LWC V1.12 B30,2013-10-01 05:32:00,
2013-10-01 01:37:00,49.1,38.6,29.88,SSW,202,10.3,18.3,67,0.00,,,0.10,LWC V1.12 B30,2013-10-01 05:37:00,
2013-10-01 01:42:00,48.9,38.8,29.88,South,180,7.4,11.2,68,0.00,,,0.10,LWC V1.12 B30,2013-10-01 05:42:00,
2013-10-01 01:47:00,48.7,38.2,29.88,SSW,202,8.1,11.0,67,0.00,,,0.10,LWC V1.12 B30,2013-10-01 05:47:00,
2013-10-01 01:52:00,48.6,38.4,29.88,WSW,247,17.4,17.4,68,0.00,,,0.10,LWC V1.12 B30,2013-10-01 05:52:00,
2013-10-01 01:57:00,48.4,38.2,29.87,South,180,11.4,11.4,68,0.00,,,0.10,LWC V1.12 B30,2013-10-01 05:57:00,
2013-10-01 02:02:00,48.0,38.3,29.87,South,180,5.1,10.5,69,0.00,,,0.10,LWC V1.12 B30,2013-10-01 06:02:00,
2013-10-01 02:07:00,47.8,38.1,29.87,SE,135,8.1,11.0,69,0.00,,,0.10,LWC V1.12 B30,2013-10-01 06:07:00,
2013-10-01 02:12:00,47.7,38.0,29.87,SW,225,6.9,12.3,69,0.00,,,0.10,LWC V1.12 B30,2013-10-01 06:12:00,
2013-10-01 02:17:00,47.5,38.2,29.88,SE,135,5.8,16.5,70,0.00,,,0.10,LWC V1.12 B30,2013-10-01 06:17:00,
2013-10-01 02:22:00,47.1,37.5,29.88,SSE,157,11.2,13.2,69,0.00,,,0.10,LWC V1.12 B30,2013-10-01 06:22:00,
2013-10-01 02:27:00,47.1,37.9,29.88,East,90,3.4,3.4,70,0.00,,,0.10,LWC V1.12 B30,2013-10-01 06:27:00,
2013-10-01 02:33:00,46.9,37.7,29.88,South,180,3.8,6.5,70,0.00,,,0.10,LWC V1.12 B30,2013-10-01 06:33:00,
2013-10-01 02:38:00,46.8,37.5,29.88,SSE,157,9.2,11.9,70,0.00,,,0.10,LWC V1.12 B30,2013-10-01 06:38:00,
2013-10-01 02:43:00,46.6,37.7,29.88,South,180,9.6,13.0,71,0.00,,,0.10,LWC V1.12 B30,2013-10-01 06:43:00,
2013-10-01 02:48:00,46.6,37.6,29.88,SSE,157,6.0,8.9,71,0.00,,,0.10,LWC V1.12 B30,2013-10-01 06:48:00,
2013-10-01 02:53:00,46.2,37.4,29.88,SSE,157,7.8,11.9,71,0.00,,,0.10,LWC V1.12 B30,2013-10-01 06:53:00,
2013-10-01 02:58:00,46.2,37.4,29.88,SSW,202,4.0,6.9,71,0.00,,,0.10,LWC V1.12 B30,2013-10-01 06:58:00,
2013-10-01 03:04:00,46.0,37.2,29.89,SSE,157,6.5,11.4,71,0.00,,,0.00,LWC V1.12 B30,2013-10-01 07:04:00,
2013-10-01 03:10:00,46.0,37.5,29.88,South,180,2.9,6.0,72,0.00,,,0.00,LWC V1.12 B30,2013-10-01 07:10:00,
2013-10-01 03:15:00,45.7,37.2,29.89,South,180,5.4,8.7,72,0.00,,,0.00,LWC V1.12 B30,2013-10-01 07:15:00,
2013-10-01 03:20:00,45.7,37.2,29.88,SE,135,7.2,11.4,72,0.00,,,0.00,LWC V1.12 B30,2013-10-01 07:20:00,
2013-10-01 03:25:00,45.5,37.3,29.88,SE,135,12.7,12.7,73,0.00,,,0.00,LWC V1.12 B30,2013-10-01 07:25:00,
2013-10-01 03:30:00,45.5,37.3,29.89,South,180,4.9,7.6,73,0.00,,,0.00,LWC V1.12 B30,2013-10-01 07:30:00,
2013-10-01 03:35:00,45.3,37.2,29.88,SSE,157,9.4,9.4,73,0.00,,,0.00,LWC V1.12 B30,2013-10-01 07:35:00,
2013-10-01 03:40:00,45.1,37.0,29.88,South,180,4.5,6.9,73,0.00,,,0.00,LWC V1.12 B30,2013-10-01 07:40:00,
2013-10-01 03:45:00,45.1,37.0,29.88,SE,135,6.9,10.3,73,0.00,,,0.00,LWC V1.12 B30,2013-10-01 07:45:00,
2013-10-01 03:50:00,45.0,36.8,29.88,South,180,2.5,6.7,73,0.00,,,0.00,LWC V1.12 B30,2013-10-01 07:50:00,
2013-10-01 03:55:00,44.8,36.6,29.88,SE,135,2.2,6.3,73,0.00,,,0.00,LWC V1.12 B30,2013-10-01 07:55:00,
2013-10-01 04:01:00,44.8,36.6,29.89,SSE,157,3.8,3.8,73,0.00,,,0.00,LWC V1.12 B30,2013-10-01 08:01:00,
2013-10-01 04:06:00,44.6,36.8,29.89,SSE,157,4.5,8.1,74,0.00,,,0.00,LWC V1.12 B30,2013-10-01 08:06:00,
2013-10-01 04:11:00,44.4,36.6,29.89,SSE,157,8.7,8.7,74,0.00,,,0.00,LWC V1.12 B30,2013-10-01 08:11:00,
2013-10-01 04:16:00,44.4,37.0,29.89,SSE,157,8.1,13.9,75,0.00,,,0.00,LWC V1.12 B30,2013-10-01 08:16:00,
2013-10-01 04:21:00,44.2,36.8,29.89,South,180,7.8,8.9,75,0.00,,,0.00,LWC V1.12 B30,2013-10-01 08:21:00,
2013-10-01 04:26:00,44.2,36.8,29.89,South,180,14.1,14.1,75,0.00,,,0.00,LWC V1.12 B30,2013-10-01 08:26:00,
2013-10-01 04:31:00,44.1,36.6,29.90,SSE,157,9.6,9.6,75,0.00,,,0.00,LWC V1.12 B30,2013-10-01 08:31:00,
2013-10-01 04:36:00,43.9,36.8,29.89,South,180,7.4,9.8,76,0.00,,,0.00,LWC V1.12 B30,2013-10-01 08:36:00,
2013-10-01 04:41:00,43.9,36.8,29.89,SSE,157,6.7,10.1,76,0.00,,,0.00,LWC V1.12 B30,2013-10-01 08:41:00,
2013-10-01 04:46:00,43.9,37.1,29.89,South,180,4.7,12.5,77,0.00,,,0.00,LWC V1.12 B30,2013-10-01 08:46:00,
2013-10-01 04:52:00,43.7,36.9,29.90,SE,135,11.2,12.3,77,0.00,,,0.00,LWC V1.12 B30,2013-10-01 08:52:00,
2013-10-01 04:57:00,43.7,36.9,29.90,South,180,10.1,11.6,77,0.00,,,0.00,LWC V1.12 B30,2013-10-01 08:57:00,
2013-10-01 05:03:00,43.5,37.1,29.90,SSE,157,7.8,12.3,78,0.00,,,0.00,LWC V1.12 B30,2013-10-01 09:03:00,
2013-10-01 05:08:00,43.5,37.1,29.90,South,180,8.9,14.5,78,0.00,,,0.00,LWC V1.12 B30,2013-10-01 09:08:00,
2013-10-01 05:13:00,43.5,37.1,29.90,SE,135,9.4,9.4,78,0.00,,,0.00,LWC V1.12 B30,2013-10-01 09:13:00,
2013-10-01 05:18:00,43.5,37.1,29.90,SSE,157,7.8,15.7,78,0.00,,,0.00,LWC V1.12 B30,2013-10-01 09:18:00,
2013-10-01 05:24:00,43.3,36.9,29.89,SSE,157,4.9,11.9,78,0.00,,,0.00,LWC V1.12 B30,2013-10-01 09:24:00,
2013-10-01 05:29:00,43.3,36.9,29.90,SSE,157,4.9,11.2,78,0.00,,,0.00,LWC V1.12 B30,2013-10-01 09:29:00,
2013-10-01 05:34:00,43.3,36.9,29.89,SSE,157,6.0,12.1,78,0.00,,,0.00,LWC V1.12 B30,2013-10-01 09:34:00,
2013-10-01 05:39:00,43.2,36.7,29.89,South,180,7.4,8.1,78,0.00,,,0.00,LWC V1.12 B30,2013-10-01 09:39:00,
2013-10-01 05:44:00,43.0,36.9,29.90,South,180,3.6,9.8,79,0.00,,,0.00,LWC V1.12 B30,2013-10-01 09:44:00,
2013-10-01 05:49:00,43.0,36.9,29.90,SSE,157,4.0,8.9,79,0.00,,,0.00,LWC V1.12 B30,2013-10-01 09:49:00,
2013-10-01 05:54:00,43.0,36.9,29.90,SSE,157,6.9,10.3,79,0.00,,,0.00,LWC V1.12 B30,2013-10-01 09:54:00,
2013-10-01 05:59:00,42.8,36.7,29.89,South,180,7.2,8.9,79,0.00,,,0.00,LWC V1.12 B30,2013-10-01 09:59:00,
2013-10-01 06:05:00,42.6,36.5,29.89,SSE,157,8.5,10.3,79,0.00,,,0.00,LWC V1.12 B30,2013-10-01 10:05:00,
2013-10-01 06:10:00,42.6,36.9,29.88,SSE,157,11.4,14.8,80,0.00,,,0.00,LWC V1.12 B30,2013-10-01 10:10:00,
2013-10-01 06:15:00,42.6,36.9,29.89,ESE,112,4.9,9.8,80,0.00,,,0.00,LWC V1.12 B30,2013-10-01 10:15:00,
2013-10-01 06:20:00,42.6,37.2,29.89,ESE,112,4.0,10.5,81,0.00,,,0.00,LWC V1.12 B30,2013-10-01 10:20:00,
2013-10-01 06:25:00,42.4,37.0,29.89,SE,135,7.4,11.4,81,0.00,,,0.00,LWC V1.12 B30,2013-10-01 10:25:00,
2013-10-01 06:30:00,42.4,37.0,29.89,South,180,7.4,13.6,81,0.00,,,0.00,LWC V1.12 B30,2013-10-01 10:30:00,
2013-10-01 06:35:00,42.4,37.0,29.88,SE,135,8.3,17.2,81,0.00,,,0.00,LWC V1.12 B30,2013-10-01 10:35:00,
2013-10-01 06:40:00,42.1,36.9,29.89,SE,135,6.5,14.3,82,0.00,,,0.00,LWC V1.12 B30,2013-10-01 10:40:00,
2013-10-01 06:46:00,42.1,36.9,29.89,SSE,157,4.7,11.2,82,0.00,,,0.00,LWC V1.12 B30,2013-10-01 10:46:00,
2013-10-01 06:51:00,41.9,36.8,29.89,SE,135,7.6,15.0,82,0.00,,,0.00,LWC V1.12 B30,2013-10-01 10:51:00,
2013-10-01 06:56:00,41.9,36.8,29.89,South,180,10.3,10.3,82,0.00,,,0.00,LWC V1.12 B30,2013-10-01 10:56:00,
2013-10-01 07:02:00,41.9,36.8,29.89,South,180,9.6,13.0,82,0.00,,,0.00,LWC V1.12 B30,2013-10-01 11:02:00,
2013-10-01 07:07:00,41.7,36.6,29.89,South,180,9.4,16.3,82,0.00,,,0.00,LWC V1.12 B30,2013-10-01 11:07:00,
2013-10-01 07:12:00,41.7,36.6,29.89,SE,135,11.0,11.0,82,0.00,,,0.00,LWC V1.12 B30,2013-10-01 11:12:00,
2013-10-01 07:17:00,41.5,36.4,29.89,SSE,157,9.2,11.4,82,0.00,,,0.00,LWC V1.12 B30,2013-10-01 11:17:00,
2013-10-01 07:22:00,41.5,36.7,29.89,SE,135,15.4,15.4,83,0.00,,,0.00,LWC V1.12 B30,2013-10-01 11:22:00,
2013-10-01 07:27:00,41.5,36.7,29.90,SE,135,4.5,10.3,83,0.00,,,0.00,LWC V1.12 B30,2013-10-01 11:27:00,
2013-10-01 07:32:00,41.4,36.5,29.90,SSE,157,13.6,13.6,83,0.00,,,0.00,LWC V1.12 B30,2013-10-01 11:32:00,
2013-10-01 07:37:00,41.4,36.5,29.91,SSE,157,6.3,9.4,83,0.00,,,0.00,LWC V1.12 B30,2013-10-01 11:37:00,
2013-10-01 07:43:00,41.4,36.5,29.91,South,180,8.1,10.3,83,0.00,,,0.00,LWC V1.12 B30,2013-10-01 11:43:00,
2013-10-01 07:48:00,41.4,36.5,29.91,SSE,157,3.1,9.2,83,0.00,,,0.00,LWC V1.12 B30,2013-10-01 11:48:00,
2013-10-01 07:53:00,41.2,36.3,29.92,South,180,8.9,8.9,83,0.00,,,0.00,LWC V1.12 B30,2013-10-01 11:53:00,
2013-10-01 07:58:00,41.0,36.2,29.92,SSE,157,6.0,8.9,83,0.00,,,0.00,LWC V1.12 B30,2013-10-01 11:58:00,
2013-10-01 08:03:00,40.8,36.0,29.92,South,180,6.3,7.4,83,0.00,,,0.00,LWC V1.12 B30,2013-10-01 12:03:00,
2013-10-01 08:08:00,40.8,36.0,29.92,ESE,112,7.2,9.6,83,0.00,,,0.00,LWC V1.12 B30,2013-10-01 12:08:00,
2013-10-01 08:13:00,40.8,36.0,29.92,SSE,157,5.8,7.6,83,0.00,,,0.00,LWC V1.12 B30,2013-10-01 12:13:00,
2013-10-01 08:18:00,40.8,36.0,29.92,SE,135,3.8,12.1,83,0.00,,,0.00,LWC V1.12 B30,2013-10-01 12:18:00,
2013-10-01 08:24:00,40.8,36.0,29.93,SE,135,6.3,8.9,83,0.00,,,0.00,LWC V1.12 B30,2013-10-01 12:24:00,
2013-10-01 08:29:00,40.6,35.8,29.92,SSE,157,5.4,7.4,83,0.00,,,0.00,LWC V1.12 B30,2013-10-01 12:29:00,
2013-10-01 08:34:00,40.6,35.8,29.92,SSE,157,6.9,12.3,83,0.00,,,0.00,LWC V1.12 B30,2013-10-01 12:34:00,
2013-10-01 08:40:00,40.6,36.1,29.92,South,180,4.7,10.3,84,0.00,,,0.00,LWC V1.12 B30,2013-10-01 12:40:00,
2013-10-01 08:45:00,40.6,36.1,29.92,South,180,3.4,5.8,84,0.00,,,0.00,LWC V1.12 B30,2013-10-01 12:45:00,
2013-10-01 08:50:00,40.5,35.7,29.93,SE,135,7.6,11.2,83,0.00,,,0.00,LWC V1.12 B30,2013-10-01 12:50:00,
2013-10-01 08:55:00,40.3,35.8,29.93,South,180,6.9,8.5,84,0.00,,,0.00,LWC V1.12 B30,2013-10-01 12:55:00,
2013-10-01 09:01:00,40.3,35.8,29.93,SSE,157,5.1,9.2,84,0.00,,,0.00,LWC V1.12 B30,2013-10-01 13:01:00,
2013-10-01 09:07:00,40.3,35.8,29.93,SSE,157,6.3,6.3,84,0.00,,,0.00,LWC V1.12 B30,2013-10-01 13:07:00,
2013-10-01 09:12:00,40.3,35.8,29.93,SE,135,5.4,7.8,84,0.00,,,0.00,LWC V1.12 B30,2013-10-01 13:12:00,
2013-10-01 09:17:00,40.3,35.8,29.93,SE,135,7.2,11.2,84,0.00,,,0.00,LWC V1.12 B30,2013-10-01 13:17:00,
2013-10-01 09:22:00,40.3,35.8,29.93,SE,135,5.8,5.8,84,0.00,,,0.00,LWC V1.12 B30,2013-10-01 13:22:00,
2013-10-01 09:27:00,40.3,35.8,29.94,South,180,4.2,8.1,84,0.00,,,0.00,LWC V1.12 B30,2013-10-01 13:27:00,
2013-10-01 09:32:00,40.3,35.8,29.94,SSE,157,5.1,6.0,84,0.00,,,0.00,LWC V1.12 B30,2013-10-01 13:32:00,
2013-10-01 09:38:00,40.3,35.8,29.94,South,180,2.9,4.9,84,0.00,,,0.00,LWC V1.12 B30,2013-10-01 13:38:00,
2013-10-01 09:43:00,40.3,35.8,29.94,SE,135,5.4,5.4,84,0.00,,,0.00,LWC V1.12 B30,2013-10-01 13:43:00,
2013-10-01 09:48:00,40.1,35.6,29.94,South,180,0.0,2.0,84,0.00,,,0.00,LWC V1.12 B30,2013-10-01 13:48:00,
2013-10-01 09:53:00,40.1,35.6,29.94,SE,135,4.7,8.1,84,0.00,,,0.00,LWC V1.12 B30,2013-10-01 13:53:00,
2013-10-01 09:58:00,40.1,35.6,29.95,ESE,112,2.5,4.7,84,0.00,,,0.00,LWC V1.12 B30,2013-10-01 13:58:00,
2013-10-01 10:03:00,40.1,35.6,29.94,SE,135,0.0,0.0,84,0.00,,,0.00,LWC V1.12 B30,2013-10-01 14:03:00,
2013-10-01 10:08:00,40.1,35.6,29.94,SE,135,0.0,0.0,84,0.00,,,0.00,LWC V1.12 B30,2013-10-01 14:08:00,
2013-10-01 10:14:00,40.1,35.6,29.95,ESE,112,0.0,0.0,84,0.00,,,0.00,LWC V1.12 B30,2013-10-01 14:14:00,
2013-10-01 10:19:00,40.1,35.6,29.95,SSE,157,2.2,3.6,84,0.00,,,0.00,LWC V1.12 B30,2013-10-01 14:19:00,
2013-10-01 10:24:00,40.1,35.6,29.95,SSE,157,0.0,0.0,84,0.00,,,0.00,LWC V1.12 B30,2013-10-01 14:24:00,
2013-10-01 10:29:00,40.3,35.8,29.95,SE,135,0.9,2.7,84,0.00,,,0.00,LWC V1.12 B30,2013-10-01 14:29:00,
2013-10-01 10:34:00,40.3,35.8,29.95,SSE,157,0.0,2.2,84,0.00,,,0.00,LWC V1.12 B30,2013-10-01 14:34:00,
2013-10-01 10:39:00,40.3,35.8,29.95,SE,135,0.0,3.8,84,0.00,,,0.00,LWC V1.12 B30,2013-10-01 14:39:00,
2013-10-01 10:44:00,40.6,36.1,29.96,South,180,1.6,2.9,84,0.00,,,0.00,LWC V1.12 B30,2013-10-01 14:44:00,
2013-10-01 10:49:00,40.6,36.1,29.96,SSE,157,2.0,3.8,84,0.00,,,0.00,LWC V1.12 B30,2013-10-01 14:49:00,
2013-10-01 10:54:00,41.0,36.8,29.96,ESE,112,2.2,2.5,85,0.00,,,0.00,LWC V1.12 B30,2013-10-01 14:54:00,
2013-10-01 10:59:00,41.4,37.1,29.96,SE,135,3.8,3.8,85,0.00,,,0.00,LWC V1.12 B30,2013-10-01 14:59:00,
2013-10-01 11:04:00,41.5,37.3,29.95,ESE,112,0.0,2.0,85,0.00,,,0.00,LWC V1.12 B30,2013-10-01 15:04:00,
2013-10-01 11:10:00,41.7,37.7,29.96,South,180,0.0,0.0,85,0.00,,,0.00,LWC V1.12 B30,2013-10-01 15:10:00,
2013-10-01 11:15:00,42.1,37.5,29.96,ESE,112,1.3,3.8,84,0.00,,,0.00,LWC V1.12 B30,2013-10-01 15:15:00,
2013-10-01 11:20:00,42.3,37.7,29.96,NE,45,1.8,2.9,84,0.00,,,0.00,LWC V1.12 B30,2013-10-01 15:20:00,
2013-10-01 11:25:00,42.6,38.1,29.96,South,180,0.0,3.4,84,0.00,,,0.00,LWC V1.12 B30,2013-10-01 15:25:00,
2013-10-01 11:30:00,42.6,38.1,29.96,SSE,157,2.2,6.0,84,0.00,,,0.00,LWC V1.12 B30,2013-10-01 15:30:00,
2013-10-01 11:35:00,43.2,38.6,29.96,South,180,3.6,4.9,84,0.00,,,0.00,LWC V1.12 B30,2013-10-01 15:35:00,
2013-10-01 11:40:00,43.3,38.8,29.96,SSE,157,1.8,5.8,84,0.00,,,0.00,LWC V1.12 B30,2013-10-01 15:40:00,
2013-10-01 11:46:00,43.5,38.7,29.96,SSW,202,2.7,3.1,83,0.00,,,0.00,LWC V1.12 B30,2013-10-01 15:46:00,
2013-10-01 11:51:00,43.9,39.0,29.96,South,180,0.0,7.4,83,0.00,,,0.00,LWC V1.12 B30,2013-10-01 15:51:00,
2013-10-01 11:56:00,44.2,39.4,29.96,SE,135,3.6,4.0,83,0.00,,,0.00,LWC V1.12 B30,2013-10-01 15:56:00,
2013-10-01 12:02:00,44.4,39.3,29.96,SSE,157,5.8,8.7,82,0.00,,,0.00,LWC V1.12 B30,2013-10-01 16:02:00,
2013-10-01 12:07:00,44.8,39.6,29.97,SSE,157,8.1,8.1,82,0.00,,,0.00,LWC V1.12 B30,2013-10-01 16:07:00,
2013-10-01 12:12:00,45.3,40.2,29.96,South,180,2.5,5.6,82,0.00,,,0.00,LWC V1.12 B30,2013-10-01 16:12:00,
2013-10-01 12:17:00,45.7,40.2,29.96,SSE,157,0.0,0.0,81,0.00,,,0.00,LWC V1.12 B30,2013-10-01 16:17:00,
2013-10-01 12:22:00,46.2,40.8,29.96,South,180,7.6,10.1,81,0.00,,,0.00,LWC V1.12 B30,2013-10-01 16:22:00,
2013-10-01 12:27:00,46.8,41.0,29.96,SSE,157,4.9,8.5,80,0.00,,,0.00,LWC V1.12 B30,2013-10-01 16:27:00,
2013-10-01 12:31:00,47.1,41.3,29.96,SE,135,5.6,11.0,80,0.00,,,0.00,LWC V1.12 B30,2013-10-01 16:31:00,
2013-10-01 12:37:00,48.0,41.8,29.96,South,180,7.8,9.4,79,0.00,,,0.00,LWC V1.12 B30,2013-10-01 16:37:00,
2013-10-01 12:42:00,48.7,42.1,29.96,SSE,157,1.6,10.1,78,0.00,,,0.00,LWC V1.12 B30,2013-10-01 16:42:00,
2013-10-01 12:47:00,49.3,42.0,29.96,SW,225,5.1,7.4,76,0.00,,,0.00,LWC V1.12 B30,2013-10-01 16:47:00,
2013-10-01 12:52:00,50.2,42.7,29.96,SE,135,5.1,10.3,76,0.00,,,0.00,LWC V1.12 B30,2013-10-01 16:52:00,
2013-10-01 12:57:00,50.2,42.2,29.95,South,180,3.4,17.0,74,0.00,,,0.00,LWC V1.12 B30,2013-10-01 16:57:00,
2013-10-01 13:03:00,50.2,42.2,29.96,SSW,202,4.7,5.1,74,0.00,,,0.00,LWC V1.12 B30,2013-10-01 17:03:00,
2013-10-01 13:08:00,50.4,42.4,29.96,ESE,112,5.1,10.3,74,0.00,,,0.00,LWC V1.12 B30,2013-10-01 17:08:00,
2013-10-01 13:13:00,50.2,42.2,29.96,ESE,112,8.7,8.7,74,0.00,,,0.00,LWC V1.12 B30,2013-10-01 17:13:00,
2013-10-01 13:18:00,50.2,42.2,29.96,SSE,157,0.0,5.1,74,0.00,,,0.00,LWC V1.12 B30,2013-10-01 17:18:00,
2013-10-01 13:24:00,50.0,42.0,29.96,SSE,157,0.0,2.5,74,0.00,,,0.00,LWC V1.12 B30,2013-10-01 17:24:00,
2013-10-01 13:29:00,50.0,42.0,29.96,South,180,1.1,8.5,74,0.00,,,0.00,LWC V1.12 B30,2013-10-01 17:29:00,
2013-10-01 13:34:00,49.8,41.8,29.96,SSW,202,1.6,4.2,74,0.00,,,0.00,LWC V1.12 B30,2013-10-01 17:34:00,
2013-10-01 13:39:00,50.2,42.2,29.95,SSW,202,1.1,2.9,74,0.00,,,0.00,LWC V1.12 B30,2013-10-01 17:39:00,
2013-10-01 13:44:00,50.7,42.7,29.95,ESE,112,3.4,3.6,74,0.00,,,0.00,LWC V1.12 B30,2013-10-01 17:44:00,
2013-10-01 13:49:00,51.3,42.9,29.95,SSW,202,3.1,5.1,73,0.00,,,0.00,LWC V1.12 B30,2013-10-01 17:49:00,
2013-10-01 13:54:00,51.6,42.9,29.94,West,270,0.0,1.1,72,0.00,,,0.00,LWC V1.12 B30,2013-10-01 17:54:00,
2013-10-01 13:59:00,52.2,43.1,29.94,WSW,247,2.2,8.3,71,0.00,,,0.00,LWC V1.12 B30,2013-10-01 17:59:00,
2013-10-01 14:04:00,52.3,42.9,29.94,NW,315,0.0,2.9,70,0.00,,,0.00,LWC V1.12 B30,2013-10-01 18:04:00,
2013-10-01 14:10:00,52.3,42.9,29.95,West,270,0.0,0.0,70,0.00,,,0.00,LWC V1.12 B30,2013-10-01 18:10:00,
2013-10-01 14:15:00,52.3,42.9,29.94,West,270,0.0,0.0,70,0.00,,,0.00,LWC V1.12 B30,2013-10-01 18:15:00,
2013-10-01 14:21:00,52.5,42.7,29.94,SW,225,3.1,3.8,69,0.00,,,0.00,LWC V1.12 B30,2013-10-01 18:21:00,
2013-10-01 14:26:00,52.3,42.5,29.94,West,270,2.2,2.2,69,0.00,,,0.00,LWC V1.12 B30,2013-10-01 18:26:00,
2013-10-01 14:31:00,52.0,42.6,29.94,North,0,3.6,4.2,70,0.00,,,0.00,LWC V1.12 B30,2013-10-01 18:31:00,
2013-10-01 14:36:00,51.6,42.3,29.94,West,270,0.0,1.8,70,0.00,,,0.00,LWC V1.12 B30,2013-10-01 18:36:00,
2013-10-01 14:41:00,51.4,42.1,29.94,WNW,292,0.0,0.0,70,0.00,,,0.00,LWC V1.12 B30,2013-10-01 18:41:00,
2013-10-01 14:46:00,51.3,42.2,29.94,NW,315,0.0,0.0,71,0.00,,,0.00,LWC V1.12 B30,2013-10-01 18:46:00,
2013-10-01 14:51:00,51.1,42.4,29.94,West,270,0.0,0.0,72,0.00,,,0.00,LWC V1.12 B30,2013-10-01 18:51:00,
2013-10-01 14:57:00,50.9,42.6,29.94,SW,225,0.0,1.3,73,0.02,,,0.00,LWC V1.12 B30,2013-10-01 18:57:00,
2013-10-01 15:02:00,50.7,42.7,29.94,SW,225,0.0,0.0,74,0.02,,,0.02,LWC V1.12 B30,2013-10-01 19:02:00,
2013-10-01 15:07:00,50.7,43.1,29.94,SW,225,1.1,2.5,75,0.02,,,0.02,LWC V1.12 B30,2013-10-01 19:07:00,
2013-10-01 15:12:00,51.3,43.4,29.94,SSW,202,0.0,0.0,75,0.02,,,0.02,LWC V1.12 B30,2013-10-01 19:12:00,
2013-10-01 15:17:00,51.6,44.0,29.94,SSE,157,5.1,7.4,75,0.02,,,0.02,LWC V1.12 B30,2013-10-01 19:17:00,
2013-10-01 15:22:00,52.2,44.1,29.94,SW,225,1.6,3.6,74,0.02,,,0.02,LWC V1.12 B30,2013-10-01 19:22:00,
2013-10-01 15:27:00,52.3,43.6,29.93,SE,135,2.9,9.2,72,0.02,,,0.02,LWC V1.12 B30,2013-10-01 19:27:00,
2013-10-01 15:32:00,52.3,43.3,29.93,SSW,202,2.2,6.0,71,0.02,,,0.02,LWC V1.12 B30,2013-10-01 19:32:00,
2013-10-01 15:37:00,52.5,43.4,29.94,SSW,202,2.7,3.8,71,0.02,,,0.02,LWC V1.12 B30,2013-10-01 19:37:00,
2013-10-01 15:42:00,53.2,44.4,29.93,SSW,202,1.3,9.6,72,0.02,,,0.02,LWC V1.12 B30,2013-10-01 19:42:00,
2013-10-01 15:47:00,54.0,44.0,29.93,SSW,202,6.7,6.7,69,0.02,,,0.02,LWC V1.12 B30,2013-10-01 19:47:00,
2013-10-01 15:52:00,54.0,43.2,29.93,SSW,202,9.4,17.2,67,0.00,,,0.02,LWC V1.12 B30,2013-10-01 19:52:00,
2013-10-01 15:57:00,54.1,42.6,29.93,SSW,202,8.9,14.5,65,0.00,,,0.02,LWC V1.12 B30,2013-10-01 19:57:00,
2013-10-01 16:02:00,54.1,42.2,29.93,SSW,202,5.6,9.2,64,0.00,,,0.02,LWC V1.12 B30,2013-10-01 20:02:00,
2013-10-01 16:08:00,54.1,42.6,29.93,SSW,202,9.2,11.4,65,0.00,,,0.02,LWC V1.12 B30,2013-10-01 20:08:00,
2013-10-01 16:13:00,53.8,41.8,29.93,SSW,202,4.0,6.5,64,0.00,,,0.02,LWC V1.12 B30,2013-10-01 20:13:00,
2013-10-01 16:18:00,53.8,41.8,29.93,South,180,5.8,8.9,64,0.00,,,0.02,LWC V1.12 B30,2013-10-01 20:18:00,
2013-10-01 16:23:00,53.4,41.5,29.93,SSW,202,11.6,11.6,64,0.00,,,0.02,LWC V1.12 B30,2013-10-01 20:23:00,
2013-10-01 16:28:00,53.4,41.5,29.94,SW,225,0.0,6.0,64,0.00,,,0.02,LWC V1.12 B30,2013-10-01 20:28:00,
2013-10-01 16:34:00,53.4,41.5,29.93,SW,225,2.2,2.2,64,0.00,,,0.02,LWC V1.12 B30,2013-10-01 20:34:00,
2013-10-01 16:39:00,53.2,41.7,29.93,West,270,0.0,4.7,65,0.00,,,0.02,LWC V1.12 B30,2013-10-01 20:39:00,
2013-10-01 16:44:00,53.2,41.7,29.93,SSW,202,4.2,5.1,65,0.00,,,0.02,LWC V1.12 B30,2013-10-01 20:44:00,
2013-10-01 16:49:00,52.9,41.8,29.93,SSW,202,3.1,4.5,66,0.00,,,0.02,LWC V1.12 B30,2013-10-01 20:49:00,
2013-10-01 16:54:00,52.5,41.9,29.93,SSE,157,5.1,11.4,67,0.00,,,0.02,LWC V1.12 B30,2013-10-01 20:54:00,
2013-10-01 16:59:00,52.3,41.7,29.93,WSW,247,2.7,9.8,67,0.00,,,0.02,LWC V1.12 B30,2013-10-01 20:59:00,
2013-10-01 17:04:00,52.0,41.8,29.94,West,270,1.6,7.8,68,0.00,,,0.02,LWC V1.12 B30,2013-10-01 21:04:00,
2013-10-01 17:09:00,51.3,40.7,29.94,West,270,2.2,2.2,67,0.02,,,0.02,LWC V1.12 B30,2013-10-01 21:09:00,
2013-10-01 17:14:00,50.4,39.8,29.93,SSE,157,2.2,5.8,67,0.02,,,0.02,LWC V1.12 B30,2013-10-01 21:14:00,
2013-10-01 17:19:00,49.8,39.7,29.93,SSW,202,1.6,4.2,68,0.04,,,0.04,LWC V1.12 B30,2013-10-01 21:19:00,
2013-10-01 17:24:00,49.6,40.3,29.93,South,180,1.8,4.0,70,0.04,,,0.04,LWC V1.12 B30,2013-10-01 21:24:00,
2013-10-01 17:29:00,49.6,40.6,29.93,South,180,2.5,3.8,71,0.04,,,0.04,LWC V1.12 B30,2013-10-01 21:29:00,
2013-10-01 17:35:00,49.8,41.1,29.93,SSW,202,3.6,10.3,73,0.04,,,0.06,LWC V1.12 B30,2013-10-01 21:35:00,
2013-10-01 17:40:00,49.8,41.5,29.93,SSW,202,6.5,6.5,73,0.04,,,0.06,LWC V1.12 B30,2013-10-01 21:40:00,
2013-10-01 17:45:00,50.2,42.2,29.93,SSW,202,2.9,5.1,74,0.04,,,0.06,LWC V1.12 B30,2013-10-01 21:45:00,
2013-10-01 17:51:00,50.4,42.4,29.93,SSW,202,4.5,7.6,74,0.04,,,0.06,LWC V1.12 B30,2013-10-01 21:51:00,
2013-10-01 17:56:00,50.7,42.7,29.93,SSW,202,4.5,9.4,74,0.04,,,0.06,LWC V1.12 B30,2013-10-01 21:56:00,
2013-10-01 18:01:00,50.9,42.9,29.94,SSW,202,2.0,10.7,74,0.04,,,0.06,LWC V1.12 B30,2013-10-01 22:01:00,
2013-10-01 18:06:00,51.3,42.9,29.94,SSW,202,1.1,6.9,73,0.02,,,0.06,LWC V1.12 B30,2013-10-01 22:06:00,
2013-10-01 18:11:00,51.4,43.1,29.94,SW,225,5.6,5.6,73,0.02,,,0.06,LWC V1.12 B30,2013-10-01 22:11:00,
2013-10-01 18:16:00,51.6,42.9,29.94,SW,225,3.1,3.1,72,0.00,,,0.06,LWC V1.12 B30,2013-10-01 22:16:00,
2013-10-01 18:21:00,51.8,43.1,29.94,South,180,0.0,2.0,72,0.00,,,0.06,LWC V1.12 B30,2013-10-01 22:21:00,
2013-10-01 18:26:00,52.2,43.4,29.94,SSW,202,0.0,0.0,73,0.00,,,0.06,LWC V1.12 B30,2013-10-01 22:26:00,
2013-10-01 18:31:00,52.5,43.8,29.94,WSW,247,1.3,1.3,72,0.00,,,0.06,LWC V1.12 B30,2013-10-01 22:31:00,
2013-10-01 18:36:00,53.1,43.9,29.94,SSW,202,1.1,8.1,71,0.00,,,0.06,LWC V1.12 B30,2013-10-01 22:36:00,
2013-10-01 18:41:00,53.2,44.1,29.94,SW,225,8.3,10.5,71,0.00,,,0.06,LWC V1.12 B30,2013-10-01 22:41:00,
2013-10-01 18:47:00,53.2,43.3,29.94,SW,225,2.9,6.9,69,0.00,,,0.06,LWC V1.12 B30,2013-10-01 22:47:00,
2013-10-01 18:52:00,53.2,42.9,29.94,SW,225,5.8,5.8,68,0.00,,,0.06,LWC V1.12 B30,2013-10-01 22:52:00,
2013-10-01 18:57:00,53.1,42.4,29.95,South,180,5.1,11.4,67,0.00,,,0.06,LWC V1.12 B30,2013-10-01 22:57:00,
2013-10-01 19:02:00,52.9,42.2,29.95,SSW,202,7.4,7.4,67,0.00,,,0.06,LWC V1.12 B30,2013-10-01 23:02:00,
2013-10-01 19:08:00,52.9,42.0,29.96,SW,225,0.0,3.4,67,0.00,,,0.06,LWC V1.12 B30,2013-10-01 23:08:00,
2013-10-01 19:13:00,52.9,42.2,29.96,SSW,202,0.0,2.2,67,0.00,,,0.06,LWC V1.12 B30,2013-10-01 23:13:00,
2013-10-01 19:18:00,52.9,42.2,29.96,SSE,157,2.9,5.8,67,0.00,,,0.06,LWC V1.12 B30,2013-10-01 23:18:00,
2013-10-01 19:22:00,52.7,42.0,29.96,SSW,202,3.8,8.1,67,0.00,,,0.06,LWC V1.12 B30,2013-10-01 23:22:00,
2013-10-01 19:27:00,52.7,41.6,29.97,SW,225,10.3,11.4,66,0.00,,,0.06,LWC V1.12 B30,2013-10-01 23:27:00,
2013-10-01 19:31:00,52.5,41.5,29.96,South,180,6.5,6.5,66,0.00,,,0.06,LWC V1.12 B30,2013-10-01 23:31:00,
2013-10-01 19:34:00,52.5,41.1,29.96,SW,225,4.5,7.6,65,0.00,,,0.06,LWC V1.12 B30,2013-10-01 23:34:00,
2013-10-01 19:39:00,52.5,41.1,29.97,SSW,202,5.8,6.3,65,0.00,,,0.06,LWC V1.12 B30,2013-10-01 23:39:00,
2013-10-01 19:44:00,52.3,40.9,29.96,SW,225,2.9,7.6,65,0.00,,,0.06,LWC V1.12 B30,2013-10-01 23:44:00,
2013-10-01 19:49:00,52.3,40.9,29.97,SSW,202,1.1,5.1,65,0.00,,,0.06,LWC V1.12 B30,2013-10-01 23:49:00,
2013-10-01 19:54:00,52.2,40.7,29.97,SSW,202,4.5,7.8,65,0.00,,,0.06,LWC V1.12 B30,2013-10-01 23:54:00,
2013-10-01 19:59:00,52.0,40.1,29.97,SSW,202,3.8,6.7,64,0.00,,,0.06,LWC V1.12 B30,2013-10-01 23:59:00,
2013-10-01 20:04:00,52.0,40.1,29.97,SSW,202,4.0,4.5,64,0.00,,,0.06,LWC V1.12 B30,2013-10-02 00:04:00,
2013-10-01 20:09:00,51.8,40.0,29.97,SW,225,12.7,12.7,64,0.00,,,0.06,LWC V1.12 B30,2013-10-02 00:09:00,
2013-10-01 20:14:00,51.8,40.0,29.97,SSW,202,8.1,8.3,64,0.00,,,0.06,LWC V1.12 B30,2013-10-02 00:14:00,
2013-10-01 20:18:00,51.6,39.8,29.97,SSW,202,10.1,10.1,64,0.00,,,0.06,LWC V1.12 B30,2013-10-02 00:18:00,
2013-10-01 20:23:00,51.6,39.8,29.98,SSW,202,3.1,6.5,64,0.00,,,0.06,LWC V1.12 B30,2013-10-02 00:23:00,
2013-10-01 20:28:00,51.6,40.2,29.97,SSW,202,1.3,7.8,65,0.00,,,0.06,LWC V1.12 B30,2013-10-02 00:28:00,
2013-10-01 20:33:00,51.6,40.2,29.98,South,180,8.3,8.3,65,0.00,,,0.06,LWC V1.12 B30,2013-10-02 00:33:00,
2013-10-01 20:38:00,51.4,40.0,29.97,SSW,202,5.6,5.6,65,0.00,,,0.06,LWC V1.12 B30,2013-10-02 00:38:00,
2013-10-01 20:43:00,51.4,40.0,29.98,SW,225,3.8,4.9,65,0.00,,,0.06,LWC V1.12 B30,2013-10-02 00:43:00,
2013-10-01 20:48:00,51.4,40.0,29.98,SSW,202,7.4,7.4,65,0.00,,,0.06,LWC V1.12 B30,2013-10-02 00:48:00,
2013-10-01 20:53:00,51.4,40.0,29.98,SSW,202,4.2,6.0,65,0.00,,,0.06,LWC V1.12 B30,2013-10-02 00:53:00,
2013-10-01 20:58:00,51.4,40.0,29.98,SSW,202,2.2,7.6,65,0.00,,,0.06,LWC V1.12 B30,2013-10-02 00:58:00,
2013-10-01 21:03:00,51.3,39.8,29.98,SW,225,6.0,9.8,65,0.00,,,0.06,LWC V1.12 B30,2013-10-02 01:03:00,
2013-10-01 21:08:00,51.1,39.7,29.98,South,180,6.0,8.5,65,0.00,,,0.06,LWC V1.12 B30,2013-10-02 01:08:00,
2013-10-01 21:13:00,50.9,39.5,29.98,SSW,202,8.1,8.1,65,0.00,,,0.06,LWC V1.12 B30,2013-10-02 01:13:00,
2013-10-01 21:18:00,50.7,39.3,29.99,SSW,202,10.3,10.3,65,0.00,,,0.06,LWC V1.12 B30,2013-10-02 01:18:00,
2013-10-01 21:23:00,50.5,39.2,29.99,SSW,202,3.6,4.0,65,0.00,,,0.06,LWC V1.12 B30,2013-10-02 01:23:00,
2013-10-01 21:29:00,50.2,39.2,30.00,SSW,202,2.9,6.0,66,0.00,,,0.06,LWC V1.12 B30,2013-10-02 01:29:00,
2013-10-01 21:34:00,50.2,39.2,30.00,SSW,202,5.1,5.4,66,0.00,,,0.06,LWC V1.12 B30,2013-10-02 01:34:00,
2013-10-01 21:39:00,49.8,39.3,30.00,South,180,2.5,5.4,67,0.00,,,0.06,LWC V1.12 B30,2013-10-02 01:39:00,
2013-10-01 21:44:00,49.6,39.1,30.00,South,180,2.2,3.1,67,0.00,,,0.06,LWC V1.12 B30,2013-10-02 01:44:00,
2013-10-01 21:49:00,49.3,39.1,30.00,South,180,2.0,6.0,68,0.00,,,0.06,LWC V1.12 B30,2013-10-02 01:49:00,
2013-10-01 21:54:00,49.1,39.0,30.00,SSW,202,2.0,5.4,68,0.00,,,0.06,LWC V1.12 B30,2013-10-02 01:54:00,
2013-10-01 21:59:00,48.7,38.6,30.01,South,180,0.0,5.8,68,0.00,,,0.06,LWC V1.12 B30,2013-10-02 01:59:00,
2013-10-01 22:04:00,48.6,38.4,30.01,South,180,1.1,1.8,68,0.00,,,0.06,LWC V1.12 B30,2013-10-02 02:04:00,
2013-10-01 22:09:00,48.4,38.6,30.01,SSE,157,2.0,4.5,69,0.00,,,0.06,LWC V1.12 B30,2013-10-02 02:09:00,
2013-10-01 22:14:00,48.2,38.5,30.01,SSE,157,2.7,5.4,69,0.00,,,0.06,LWC V1.12 B30,2013-10-02 02:14:00,
2013-10-01 22:19:00,48.0,38.3,30.01,South,180,3.1,3.8,69,0.00,,,0.06,LWC V1.12 B30,2013-10-02 02:19:00,
2013-10-01 22:24:00,47.8,38.5,30.01,SE,135,4.5,5.8,70,0.00,,,0.06,LWC V1.12 B30,2013-10-02 02:24:00,
2013-10-01 22:29:00,47.8,38.5,30.01,South,180,3.1,5.8,70,0.00,,,0.06,LWC V1.12 B30,2013-10-02 02:29:00,
2013-10-01 22:34:00,47.7,38.4,30.02,SSW,202,4.5,4.5,70,0.00,,,0.06,LWC V1.12 B30,2013-10-02 02:34:00,
2013-10-01 22:39:00,47.5,38.2,30.02,SE,135,3.6,3.6,70,0.00,,,0.06,LWC V1.12 B30,2013-10-02 02:39:00,
2013-10-01 22:44:00,47.3,37.6,30.03,SSE,157,8.1,8.1,69,0.00,,,0.06,LWC V1.12 B30,2013-10-02 02:44:00,
2013-10-01 22:49:00,47.3,37.6,30.03,South,180,5.1,6.0,69,0.00,,,0.06,LWC V1.12 B30,2013-10-02 02:49:00,
2013-10-01 22:54:00,47.3,37.6,30.04,SE,135,2.7,9.8,69,0.00,,,0.06,LWC V1.12 B30,2013-10-02 02:54:00,
2013-10-01 22:59:00,47.3,37.6,30.03,SSE,157,8.1,8.3,69,0.00,,,0.06,LWC V1.12 B30,2013-10-02 02:59:00,
2013-10-01 23:04:00,47.3,38.0,30.04,SSW,202,5.8,11.9,70,0.00,,,0.06,LWC V1.12 B30,2013-10-02 03:04:00,
2013-10-01 23:10:00,47.3,38.0,30.03,SSE,157,3.1,10.5,70,0.00,,,0.06,LWC V1.12 B30,2013-10-02 03:10:00,
2013-10-01 23:15:00,47.1,38.2,30.03,South,180,3.4,6.5,71,0.00,,,0.06,LWC V1.12 B30,2013-10-02 03:15:00,
2013-10-01 23:20:00,47.1,38.2,30.04,SSW,202,5.8,10.7,71,0.00,,,0.06,LWC V1.12 B30,2013-10-02 03:20:00,
2013-10-01 23:25:00,46.9,38.4,30.04,SSE,157,4.7,5.8,72,0.00,,,0.06,LWC V1.12 B30,2013-10-02 03:25:00,
2013-10-01 23:30:00,46.6,38.1,30.04,SSW,202,4.9,9.8,72,0.00,,,0.06,LWC V1.12 B30,2013-10-02 03:30:00,
2013-10-01 23:35:00,46.6,38.1,30.05,South,180,11.0,13.0,72,0.00,,,0.06,LWC V1.12 B30,2013-10-02 03:35:00,
2013-10-01 23:40:00,46.2,38.1,30.04,SE,135,13.9,16.1,73,0.00,,,0.06,LWC V1.12 B30,2013-10-02 03:40:00,
2013-10-01 23:45:00,46.2,38.1,30.04,South,180,6.3,11.6,73,0.00,,,0.06,LWC V1.12 B30,2013-10-02 03:45:00,
2013-10-01 23:50:00,46.0,38.2,30.04,SSE,157,5.6,11.6,74,0.00,,,0.06,LWC V1.12 B30,2013-10-02 03:50:00,
2013-10-01 23:55:00,45.7,37.9,30.05,SSW,202,5.8,8.7,74,0.00,,,0.06,LWC V1.12 B30,2013-10-02 03:55:00,